Date,TemperatureHighF,TemperatureAvgF,TemperatureLowF,DewpointHighF,DewpointAvgF,DewpointLowF,HumidityHigh,HumidityAvg,HumidityLow,PressureMaxIn,PressureMinIn,WindSpeedMaxMPH,WindSpeedAvgMPH,GustSpeedMaxMPH,PrecipitationSumIn
2013-6-1,100,85,77,75,73,71,85,68,43,29.92,29.80,2,1,10,0.00
2013-6-2,92,79,68,74,66,59,95,66,34,30.08,29.92,2,0,10,0.11
2013-6-3,95,80,49,74,66,-5,96,65,10,30.01,29.84,97,2,97,0.00
2013-6-4,93,85,69,71,67,-5,94,57,10,29.92,29.81,98,2,98,0.00
2013-6-5,124,89,47,93,67,31,90,51,34,29.92,29.75,119,4,119,0.02
2013-6-6,88,88,88,66,66,66,49,49,49,29.96,29.79,0,0,2,0.00
2013-6-7,91,86,68,66,59,13,63,43,10,30.03,29.89,0,0,4,0.00
2013-6-8,95,68,52,66,37,-3,63,38,10,29.95,29.80,61,21,61,0.00
2013-6-9,92,63,52,72,22,-3,86,29,10,30.00,29.85,61,40,61,0.00
2013-6-10,99,85,69,75,69,58,97,64,27,30.01,29.91,2,0,8,0.00
2013-6-11,84,84,84,71,71,71,67,67,67,30.05,29.95,0,0,1,0.00
2013-6-12,84,81,0,72,71,71,76,65,67,30.07,0.00,1,0,4,0.00
2013-6-13,100,84,0,76,73,71,93,58,41,30.08,29.95,1,0,4,0.00
2013-6-14,0,0,0,73,73,73,0,0,100,30.02,29.92,0,0,0,0.00
2013-6-15,87,82,78,74,73,73,85,76,63,29.96,29.92,0,0,0,0.00
2013-6-16,102,88,75,75,70,64,92,61,33,30.03,29.91,2,0,11,0.00
2013-6-17,102,88,77,75,70,64,84,59,32,30.02,29.86,2,0,9,0.00
2013-6-18,97,83,70,76,72,67,97,71,42,30.04,29.89,1,0,7,0.21
2013-6-19,101,88,74,76,70,66,92,59,35,29.99,29.90,2,0,10,0.00
2013-6-20,101,88,76,73,69,62,87,57,30,30.07,29.95,2,0,11,0.00
2013-6-21,100,88,77,75,68,59,87,55,26,30.09,29.97,2,1,10,0.00
2013-6-22,102,88,76,74,68,60,88,56,27,30.06,29.89,2,1,11,0.00
2013-6-23,96,86,77,73,67,57,87,56,30,30.00,29.89,2,1,8,0.00
2013-6-24,102,88,76,74,70,64,87,59,29,30.05,29.90,3,1,13,0.00
2013-6-25,104,89,0,73,68,60,86,55,25,30.02,29.87,2,1,12,0.00
2013-6-26,105,90,77,73,69,61,82,55,26,29.99,29.88,2,1,8,0.00
2013-6-27,107,90,76,73,65,49,84,50,17,30.05,29.91,2,0,9,0.00
2013-6-28,111,92,75,74,66,56,84,48,18,30.02,29.82,1,0,7,0.00
2013-6-29,113,94,72,72,63,48,82,43,13,29.89,29.76,2,0,8,0.00
2013-6-30,101,86,71,72,66,57,91,54,30,29.99,29.84,2,0,10,0.02